SCP
0 0 0 0 0 0 0 0 0 0 0 0 1 1 1 1 1 1 1 1 1 1 1 1 1 2 2 1 2 2 3 3 3 3 3 2 2 2 2 2 2 2 2 2
0 0 0 0 0 0 0 0 0 0 0 0 1 1 1 1 1 1 1 1 1 2 2 2 2 2 2 2 2 2 3 3 3 3 3 2 2 2 2 2 2 2 2 2
0 0 0 0 0 0 0 0 0 0 0 0 1 1 1 1 1 1 1 2 2 2 2 2 2 2 2 2 2 2 3 3 4 3 3 2 2 2 2 2 2 2 2 2
0 0 0 0 0 0 0 0 0 0 0 0 0 0 0 1 1 1 2 2 3 2 2 2 3 3 3 3 3 3 3 3 4 4 3 3 2 2 2 2 2 1 2 2
0 0 0 0 0 0 0 0 0 0 0 0 0 0 0 1 1 1 2 2 2 2 2 2 3 3 3 3 3 4 4 4 4 4 4 4 3 3 3 3 2 2 2 3
0 0 0 0 0 0 0 0 0 0 0 0 0 0 0 1 1 1 2 2 2 2 2 2 3 3 3 3 4 5 5 5 5 5 6 5 5 4 4 4 4 3 3 3
0 0 0 0 0 0 0 0 0 0 0 0 0 0 1 1 1 2 2 2 2 1 2 3 3 3 3 3 4 5 5 5 5 5 6 6 6 6 5 5 5 5 4 4
0 0 0 0 0 0 0 0 0 0 0 0 0 1 1 1 2 2 2 2 2 1 2 3 4 3 3 3 4 4 5 5 5 5 5 6 7 6 6 6 6 5 5 5
0 0 0 0 0 0 0 0 0 0 0 0 0 1 1 1 2 2 2 2 2 2 2 3 4 4 4 4 4 4 4 4 5 5 4 4 5 6 6 6 7 6 6 5
0 0 0 0 0 0 0 0 0 0 0 0 0 1 1 1 1 2 1 1 1 1 2 3 4 5 6 5 4 4 4 4 4 4 3 3 3 4 5 6 7 6 6 5
0 0 0 0 0 0 0 0 0 0 0 0 0 1 1 1 1 1 1 1 1 1 2 2 4 6 6 6 5 4 3 3 3 3 3 2 2 3 4 5 6 5 5 5
0 0 0 0 0 0 0 0 0 0 0 0 0 1 1 1 1 1 1 1 1 1 1 2 3 4 5 5 4 4 3 3 3 3 2 1 1 2 2 3 4 4 5 5
0 0 0 0 0 0 0 0 0 0 0 0 0 1 1 1 1 1 1 1 1 1 1 2 2 3 4 5 5 4 3 3 3 4 3 2 1 2 2 2 3 3 4 4
0 0 0 0 0 0 0 0 0 0 0 0 1 1 1 1 1 1 1 2 2 2 2 2 3 3 4 5 5 4 3 3 4 5 4 3 2 2 2 2 2 2 2 2
0 0 0 0 0 0 0 0 0 0 1 1 1 1 1 1 1 1 2 2 3 3 3 3 3 3 4 4 4 3 3 4 4 5 6 4 3 4 4 3 2 1 1 1
0 0 0 0 0 0 0 0 1 1 1 1 1 1 1 1 1 2 2 2 3 3 3 4 4 4 4 4 3 3 3 4 4 5 6 6 5 5 5 4 2 2 1 1
0 0 0 0 0 0 0 1 1 1 1 1 1 1 1 1 1 2 2 2 3 3 3 3 4 4 3 3 2 2 2 3 4 4 6 7 8 7 6 5 3 2 1 1
0 0 0 0 0 0 0 0 1 1 1 1 1 1 1 1 2 2 1 1 2 3 3 3 4 4 3 3 2 2 2 2 3 3 5 7 9 9 8 6 3 2 2 2
0 0 0 0 0 0 0 0 0 1 1 1 1 0 1 1 2 1 1 1 2 2 3 3 3 3 2 3 2 2 1 1 2 2 3 6 8 10 10 8 4 2 2 2
0 0 0 0 0 0 0 0 0 0 0 0 0 1 1 1 1 1 1 1 2 2 2 2 2 2 3 3 3 2 1 1 1 1 2 4 8 10 11 9 6 3 2 2
0 0 0 0 0 0 0 0 0 0 0 0 0 1 1 1 1 1 1 1 1 2 1 1 1 2 3 4 3 2 1 1 1 1 1 2 6 10 12 11 7 4 3 2
0 0 0 0 0 0 0 0 0 0 0 0 0 0 1 1 1 1 1 1 1 1 1 1 2 2 3 3 3 2 1 1 1 1 1 2 5 9 11 9 7 5 4 4
0 0 0 0 0 0 0 0 0 0 0 0 0 0 0 0 0 1 1 1 1 1 1 1 2 2 3 2 2 1 1 1 1 1 1 2 4 7 8 7 5 6 7 7
0 0 0 0 0 0 0 0 0 0 0 0 0 0 0 0 0 1 2 2 2 2 1 1 2 2 2 2 2 1 1 1 1 1 1 1 2 4 4 4 4 6 7 7
0 0 0 0 0 0 1 1 0 0 0 0 0 0 0 0 1 2 2 2 2 2 2 2 2 2 2 1 1 1 1 1 1 1 0 1 1 1 2 2 2 4 5 5
0 0 0 0 0 0 1 1 0 0 0 0 0 0 0 1 1 3 3 3 3 3 2 2 2 2 2 1 1 1 1 1 1 0 0 0 1 1 1 1 1 2 2 3
Wind_Speed
3 4 4 7 7 5 3 3 4 5 3 2 4 6 6 4 5 6 6 7 8 9 6 5 5 6 5 5 5 6 6 6 5 4 3 3 2 1 1 1 1 1 1 2
4 3 7 4 4 3 3 2 4 4 1 2 3 5 4 4 7 8 9 9 8 6 3 5 6 6 7 7 6 6 7 7 6 4 3 2 2 2 1 0 0 1 1 2
6 6 3 5 4 4 4 5 5 4 2 2 0 5 3 3 2 4 5 6 6 8 8 7 7 8 7 8 8 7 7 6 5 5 4 3 3 2 1 1 0 1 1 1
5 4 3 3 5 6 6 7 6 4 2 2 1 3 6 3 3 4 5 5 6 6 7 7 8 8 8 8 7 6 6 6 5 6 5 5 4 3 2 1 1 0 0 1
5 3 4 4 6 7 6 2 3 2 3 0 1 2 7 1 3 7 6 6 6 6 7 8 8 9 7 6 6 6 6 5 5 5 6 5 4 3 2 1 1 0 0 0
5 3 4 5 3 5 4 5 5 5 4 1 3 4 7 4 6 5 5 5 5 5 6 6 5 6 5 5 5 6 6 5 5 6 5 5 5 4 4 2 2 1 0 0
3 3 2 2 2 1 4 6 3 3 2 5 2 3 8 6 5 5 6 5 4 4 5 6 6 7 7 7 7 6 7 6 5 6 5 5 5 5 5 4 3 2 1 1
2 5 3 2 5 5 4 8 8 5 5 4 1 5 7 4 3 1 2 3 2 3 4 5 6 7 7 7 7 7 7 6 5 6 5 5 5 4 3 3 3 2 2 2
5 6 4 2 2 7 5 3 5 6 2 1 4 5 6 2 2 1 1 1 2 3 4 4 4 5 6 7 7 7 7 6 5 5 5 4 4 4 4 3 3 2 2 1
6 3 4 2 3 3 4 7 5 6 5 3 4 3 4 4 3 2 1 1 1 2 3 4 4 5 5 6 5 5 6 6 4 4 4 4 4 4 4 3 3 3 2 1
4 3 4 2 2 3 3 3 4 4 5 6 3 7 5 6 5 4 4 3 3 3 3 3 4 4 4 5 5 5 5 4 4 4 3 3 3 3 3 3 3 3 2 2
3 5 2 4 3 2 3 5 7 5 3 4 4 8 3 3 4 3 3 2 2 2 2 2 3 4 4 4 5 6 5 5 4 4 3 4 3 3 3 3 3 3 3 2
4 5 2 5 4 2 2 2 3 5 5 4 4 7 2 1 0 2 3 2 2 2 2 2 2 3 4 5 5 4 5 5 4 4 4 3 3 3 4 3 3 3 3 2
5 4 6 8 7 3 1 1 3 5 4 5 7 6 5 3 1 1 2 2 3 2 2 2 2 2 2 4 5 5 4 4 4 4 4 4 4 4 4 3 3 3 3 3
4 3 4 4 3 3 3 2 3 5 7 8 7 6 6 4 4 3 2 2 2 2 2 3 2 2 1 2 3 4 4 4 4 5 5 4 3 3 3 3 3 3 3 3
2 3 2 1 1 2 1 2 3 3 3 3 2 5 4 2 1 2 2 3 3 3 3 3 3 3 3 3 3 3 3 4 4 4 4 4 3 3 3 3 3 3 3 3
1 3 3 2 2 2 3 4 4 3 2 3 4 5 1 0 2 3 3 4 4 4 3 3 3 3 3 3 3 3 3 3 3 4 4 3 3 3 3 4 3 4 4 3
4 3 3 1 2 4 6 2 2 3 1 1 2 2 1 2 1 0 1 3 3 2 2 2 2 2 2 2 2 2 2 3 3 3 3 3 3 3 3 3 4 4 3 3
3 6 4 3 2 3 4 1 1 2 2 1 2 0 1 1 2 2 1 1 2 1 1 1 1 2 2 2 3 3 2 2 2 2 2 3 3 4 4 4 4 4 3 3
4 4 4 3 3 4 4 3 1 2 3 2 2 2 1 2 1 3 1 1 1 2 2 2 2 3 3 2 2 3 2 1 1 2 2 2 3 4 4 4 4 3 3 3
3 3 2 2 3 5 4 5 1 3 5 2 2 3 3 3 3 2 0 1 2 2 2 3 3 2 2 1 3 3 2 1 1 0 0 1 2 2 3 3 2 3 3 3
3 2 2 2 2 5 4 2 2 4 3 1 2 2 2 2 1 1 2 2 2 3 2 3 3 2 1 2 3 2 1 1 0 1 0 1 1 1 1 2 1 2 2 3
2 4 4 5 5 4 2 2 3 2 2 1 1 1 2 2 1 1 1 2 2 2 2 2 2 2 2 1 2 2 1 0 1 1 1 0 1 1 1 1 1 1 1 1
2 1 1 2 4 4 4 3 3 2 2 2 1 2 3 3 3 2 1 1 1 1 2 2 2 2 0 0 0 1 0 1 2 1 1 0 1 1 1 1 1 1 1 1
3 0 0 3 4 5 4 3 3 3 2 1 1 1 2 3 3 3 2 2 2 1 1 2 2 2 1 1 0 0 1 2 1 1 0 0 1 1 1 1 1 0 1 1
3 3 3 5 5 3 5 5 4 2 2 1 0 0 0 3 4 3 3 2 2 2 2 2 2 2 1 1 0 0 1 2 2 1 0 0 0 1 1 1 1 3 2 1
Wind_Direction
88 93 197 212 195 188 177 188 240 254 241 176 234 255 258 219 200 202 202 199 202 208 202 169 170 166 159 162 163 162 159 155 148 145 149 148 154 142 129 153 161 166 161 148
54 249 228 191 173 175 185 221 251 282 279 182 243 272 265 219 209 202 201 201 205 204 179 176 173 172 174 175 169 165 166 164 164 163 154 143 132 132 136 126 116 190 181 165
187 231 179 161 177 188 216 201 218 226 333 9 38 310 295 271 242 212 209 208 202 199 193 187 185 183 177 182 180 175 170 166 163 150 126 106 86 75 82 90 220 265 168 156
226 246 183 192 211 177 239 222 198 189 131 280 135 272 285 267 278 234 219 213 215 207 196 190 187 187 189 188 176 166 162 160 159 152 151 148 151 166 189 185 195 236 125 141
236 201 179 210 224 178 216 191 162 166 155 242 318 195 283 296 251 245 230 218 219 205 195 194 195 191 186 175 166 157 151 154 156 158 160 153 156 167 151 137 146 137 31 85
240 227 197 207 218 174 149 79 65 54 77 242 227 177 272 236 225 237 223 211 211 200 190 189 187 174 167 158 154 153 151 157 158 158 159 162 164 157 148 154 158 145 66 319
304 291 251 170 103 73 105 96 48 1 7 248 240 188 248 254 238 214 208 214 206 188 177 174 172 174 170 164 163 160 159 163 163 160 165 168 168 164 168 170 174 170 185 221
198 281 255 199 177 177 171 141 157 192 215 266 289 228 254 277 279 229 201 192 162 161 170 177 179 176 172 170 169 166 165 166 166 165 168 167 165 163 168 171 170 178 194 210
179 252 280 242 180 144 143 174 160 134 158 215 266 277 300 347 357 4 112 138 162 168 169 167 166 165 165 168 173 171 168 169 169 166 159 161 164 165 168 166 163 174 184 185
157 232 283 298 68 35 142 144 109 124 149 227 281 267 253 276 278 278 205 199 205 162 161 167 162 160 164 169 167 158 158 167 164 161 165 166 170 167 162 159 170 177 177 162
133 168 300 10 146 184 106 106 115 121 152 159 231 263 231 217 217 211 214 204 183 171 176 183 177 165 157 151 149 148 152 152 155 166 164 156 163 162 162 172 183 184 179 167
145 129 242 266 263 198 161 163 148 149 203 172 176 262 276 220 224 205 203 193 177 174 163 153 163 154 148 152 152 153 159 163 171 172 160 158 166 167 172 183 190 184 181 178
138 119 79 340 339 1 87 139 141 125 123 154 173 255 313 9 189 187 181 174 165 145 107 96 114 157 159 159 155 159 165 168 161 154 155 161 170 181 191 192 185 178 179 180
121 128 168 197 218 210 224 198 153 131 153 192 215 238 290 309 278 222 184 173 156 153 135 128 129 138 150 156 155 158 162 164 155 148 157 172 189 195 194 191 184 181 181 182
104 163 205 222 221 184 196 220 204 190 190 192 222 221 247 244 227 210 174 152 138 145 143 151 151 137 124 134 148 154 158 159 159 162 169 184 192 191 186 184 185 183 188 190
75 158 158 253 258 192 208 263 221 216 205 216 229 259 264 262 137 131 148 157 163 183 183 174 164 156 166 174 169 156 164 167 161 172 182 184 177 183 191 190 184 181 189 186
124 138 129 224 301 54 261 246 203 180 186 175 210 245 282 204 181 178 181 189 192 193 188 180 185 188 181 176 168 166 172 166 164 179 184 183 180 191 202 196 183 190 196 190
146 116 121 136 100 214 242 265 168 154 188 213 242 274 218 215 204 136 172 192 202 196 192 184 181 179 165 152 137 149 162 170 177 183 188 185 184 194 197 191 196 205 200 196
152 137 124 127 173 266 293 291 163 157 256 226 212 333 36 59 58 357 354 181 193 177 172 172 161 141 127 136 146 147 159 166 178 194 198 197 194 198 196 201 205 209 201 203
71 94 115 127 154 225 254 296 272 122 284 275 178 166 146 97 117 266 284 93 94 87 92 102 98 97 104 117 129 129 144 148 194 213 209 209 202 202 203 210 212 210 202 205
40 54 109 158 201 256 283 308 65 152 245 264 191 180 168 189 216 234 91 88 111 97 88 96 96 99 122 131 122 119 124 187 266 339 221 210 206 206 201 200 203 197 196 189
164 146 174 147 184 255 316 26 165 230 268 233 198 191 188 206 137 121 116 101 94 85 73 87 97 84 71 106 120 123 176 230 70 61 18 236 219 217 182 169 186 178 177 183
195 193 190 189 213 252 301 263 286 273 273 267 221 202 159 159 167 136 121 122 122 120 105 99 110 90 52 77 134 156 253 131 100 77 28 354 31 35 94 133 139 139 152 182
300 48 132 276 282 302 312 317 326 313 290 297 228 184 168 173 171 160 161 156 142 124 122 112 104 102 52 325 139 184 231 119 109 93 33 50 75 41 40 60 124 145 176 193
263 308 1 279 293 320 321 320 321 329 338 344 317 248 192 169 168 172 181 186 171 159 144 140 152 175 208 230 328 107 138 129 115 112 89 97 102 112 87 58 42 159 207 213
226 195 197 236 243 235 272 297 303 308 303 286 196 300 221 169 167 165 176 184 179 176 158 149 162 177 199 198 250 313 137 143 143 139 238 202 137 132 127 113 47 34 46 22